Location: Newark
(13.6797°N, 8.5297°E)
Time: 07:21:32
(UTC+00:00)

A-11 Canister half - Pass Details

Date: 27 January 2020
Orbit: 1517 x 1683 km, 47.2° (Epoch: 17 February)

Event Time Altitude Azimuth Distance (km) Brightness Sun altitude
Rises 04:17:38 0° 335° (NNW) 4,653 - -23.2°
Exits shadow 04:19:38 - 342° (NNW) 4,160 11.0 -22.7°
Reaches altitude 10° 04:21:51 10° 352° (N) 3,677 10.8 -22.2°
Maximum altitude 04:28:12 20° 36° (NE) 2,980 10.7 -20.7°
Drops below altitude 10° 04:34:36 10° 80° (E) 3,730 12.0 -19.2°
Sets 04:38:52 0° 96° (E) 4,742 13.2 -18.2°
